Skip Page Navigation
NASA JPL Caltech
NASA Logo - Jet Propulsion Laboratory + View the NASA Portal
+ Center for Near-Earth Object Studies
JPL Home Earth Solar System Stars & Galaxies Technology
JPL Solar System Dynamics
BODIES ORBITS EPHEMERIDES TOOLS PHYSICAL DATA DISCOVERY FAQ SITE MAP
JPL Small-Body Database Browser
Search: [ help ]  
117637 (2005 EJ131)
Classification: Main-belt Asteroid          SPK-ID: 2117637
Ephemeris | Orbit Diagram | Orbital Elements | Mission Design | Physical Parameters | Discovery Circumstances ]

[ show orbit diagram ]
Orbital Elements at Epoch 2459000.5 (2020-May-31.0) TDB
Reference: JPL 18 (heliocentric ecliptic J2000)
 Element Value Uncertainty (1-sigma)   Units 
e .08297541321020303 4.8157e-08  
a 2.741068420817331 2.1481e-08 au
q 2.513627135962574 1.3144e-07 au
i 9.768762041561921 5.3757e-06 deg
node 90.68317723955809 3.4428e-05 deg
peri 54.79401503830608 4.947e-05 deg
M 138.3617878972483 3.6057e-05 deg
tp 2458363.423030098208
(2018-Sep-01.92303010)
0.00016593 TDB
period 1657.59428705103
4.54
1.9485e-05
5.335e-08
d
yr
n .217182215703979 2.5529e-09 deg/d
Q 2.968509705672087 2.3263e-08 au
  Orbit Determination Parameters
   # obs. used (total)      383  
   data-arc span      8946 days (24.49 yr)  
   first obs. used      1994-11-11  
   last obs. used      2019-05-10  
   planetary ephem.      DE431  
   SB-pert. ephem.      SB431-N16  
   condition code      0  
   norm. resid. RMS      .61183  
   source      ORB  
   producer      Otto Matic  
   solution date      2019-May-30 06:54:56  

Additional Information
 Earth MOID = 1.54127 au 
 Jupiter MOID = 2.10069 au 
 T_jup = 3.324 
[ show covariance matrix ]

Ephemeris | Orbit Diagram | Orbital Elements | Mission Design | Physical Parameters | Discovery Circumstances ]

Physical Parameter Table
Parameter Symbol Value Units Sigma Reference Notes
absolute magnitude H 15.3   n/a MPO432680  

117637 (2005 EJ131)          Discovered 2005-Mar-09 by CSS at Catalina
Reference: 20051019/Numbers.arcLast Updated: 2005-10-26
Ephemeris | Orbit Diagram | Orbital Elements | Mission Design | Physical Parameters | Discovery Circumstances ]
ABOUT SSD CREDITS/AWARDS PRIVACY/COPYRIGHT GLOSSARY LINKS
FirstGov 2020-Jul-11 14:39 UT
(server date/time)  
NASA Home Page
Site Manager:   Ryan S. Park
Webmaster  Alan B. Chamberlin